Regional Weather Roundup
Issued by NWS

Home | Current Version | Previous Version | Text Only | Print | Product List | Glossary Off
Versions: 1 2 3 4 5 6 7 8 9 10 11 12 13 14 15 16 17 18 19 20 21 22 23 24 25 26 27 28 29 30 31 32 33 34 35 36 37 38 39 40 41 42 43 44 45 46 47 48 49 50

000
ASUS43 KOAX 251810
RWRNE

WEATHER ROUNDUP FOR NEBRASKA
NATIONAL WEATHER SERVICE OMAHA NE
100 PM CDT SAT OCT 25 2014

NOTES: SATELLITE DATA IS BEING USED TO AUGMENT CLOUD COVER ABOVE
       12000 FEET.
       "FAIR" INDICATES FEW OR NO CLOUDS BELOW 12,000 FEET WITH NO
       SIGNIFICANT WEATHER AND/OR OBSTRUCTIONS TO VISIBILITY.

  * THESE STATIONS DO NOT REPORT WEATHER SUCH AS RAIN...SNOW OR FOG.

NEZ001>004-019>022-054>056-251900-
NEBRASKA PANHANDLE

CITY           SKY/WX    TMP DP  RH WIND       PRES   REMARKS
SCOTTSBLUFF    SUNNY     64  32  30 CALM      30.14F
6HR MIN TEMP:  36; 6HR MAX TEMP:  64;

ALLIANCE       SUNNY     61  39  44 S5        30.14F
6HR MIN TEMP:  28; 6HR MAX TEMP:  62;

CHADRON        SUNNY     59  40  49 NE5       30.12F
6HR MIN TEMP:  29; 6HR MAX TEMP:  59;

KIMBALL        SUNNY     76  27  16 SW8       30.16F
SIDNEY         SUNNY     71  36  27 SE6       30.16F
6HR MIN TEMP:  37; 6HR MAX TEMP:  71;

$$

NEZ057>060-069>072-079>082-251900-
SOUTHWEST NEBRASKA

CITY           SKY/WX    TMP DP  RH WIND       PRES   REMARKS
NORTH PLATTE   SUNNY     69  46  43 E9        30.12F
6HR MIN TEMP:  33; 6HR MAX TEMP:  69;

IMPERIAL       SUNNY     73  36  25 E5        30.12F
6HR MIN TEMP:  38; 6HR MAX TEMP:  73;

LEXINGTON      SUNNY     71  46  41 E8        30.11F
MCCOOK         SUNNY     71  46  40 E6        30.10F
6HR MIN TEMP:  38; 6HR MAX TEMP:  72;

OGALLALA       SUNNY     69  39  33 CALM      30.13F
$$

NEZ005>010-023>029-035>040-094-251900-
NORTH CENTRAL NEBRASKA

CITY           SKY/WX    TMP DP  RH WIND       PRES   REMARKS
VALENTINE      SUNNY     65  28  24 E14       30.15F
6HR MIN TEMP:  34; 6HR MAX TEMP:  65;

AINSWORTH      SUNNY     64  31  29 E10       30.15F
BROKEN BOW     SUNNY     69  43  38 SE10      30.13F
6HR MIN TEMP:  39; 6HR MAX TEMP:  69;

O`NEILL        SUNNY     67  35  30 E8        30.16F
ORD            SUNNY     68  39  34 E9        30.12F
6HR MIN TEMP:  43; 6HR MAX TEMP:  68;

THEDFORD       SUNNY     68  37  31 E10       30.15F
$$

NEZ041-046>049-061>064-073>077-083>087-251900-
SOUTH CENTRAL NEBRASKA

CITY           SKY/WX    TMP DP  RH WIND       PRES   REMARKS
GRAND ISLAND   SUNNY     70  44  39 E6        30.12F
6HR MIN TEMP:  42; 6HR MAX TEMP:  70;

AURORA         SUNNY     70  42  35 E6        30.12S
HASTINGS       SUNNY     70  44  39 E7        30.11F
6HR MIN TEMP:  43; 6HR MAX TEMP:  70;

HEBRON         SUNNY     74  45  35 SE8       30.08F
HOLDREGE       SUNNY     71  46  40 E8        30.09F
KEARNEY *      SUNNY     70  46  43 E10       30.12F
YORK           SUNNY     68  46  45 E10       30.12S
$$

NEZ011>018-030>034-042>045-251900-
NORTHEAST NEBRASKA

CITY           SKY/WX    TMP DP  RH WIND       PRES   REMARKS
NORFOLK        SUNNY     68  37  32 E5        30.14F
6HR MIN TEMP:  42; 6HR MAX TEMP:  68;

ALBION         SUNNY     66  38  34 E8        30.14F
BLAIR          SUNNY     69  42  37 E7        30.12S
COLUMBUS *     SUNNY     68  37  32 E10       30.15S
FREMONT        SUNNY     69  38  32 NE3       30.13S
TEKAMAH        SUNNY     70  40  33 NE7       30.12S
6HR MIN TEMP:  43; 6HR MAX TEMP:  70;

WAYNE          SUNNY     67  33  27 NE8       30.14F
$$

NEZ050>053-065>068-078-088>093-251900-
SOUTHEAST NEBRASKA

CITY           SKY/WX    TMP DP  RH WIND       PRES   REMARKS
LINCOLN        SUNNY     71  45  39 NE8       30.12F
6HR MIN TEMP:  43; 6HR MAX TEMP:  71;

OMAHA EPPLEY   MOSUNNY   70  39  32 E6        30.11F
6HR MIN TEMP:  47; 6HR MAX TEMP:  71;

BEATRICE       SUNNY     72  48  42 E9        30.09F
FALLS CITY     SUNNY     74  51  44 VRB6      30.07F
6HR MIN TEMP:  47; 6HR MAX TEMP:  74;

NEBRASKA CITY  SUNNY     70  41  34 E6        30.10F
PLATTSMOUTH    SUNNY     70  37  29 NE6       30.11S
$$

NEZ044-045-051>053-067-251900-
OMAHA AREA

CITY           SKY/WX    TMP DP  RH WIND       PRES   REMARKS
OMAHA EPPLEY   MOSUNNY   70  39  32 E6        30.11F
6HR MIN TEMP:  47; 6HR MAX TEMP:  71;

BLAIR          SUNNY     69  42  37 E7        30.12S
FREMONT        SUNNY     69  38  32 NE3       30.13S
MILLARD        SUNNY     68  45  42 CALM      30.11S
OFFUTT AFB     SUNNY     72  45  37 NE5       30.10F
PLATTSMOUTH    SUNNY     70  37  29 NE6       30.11S
WAHOO          FAIR      70  36  28 NE5       30.12S
$$



USA.gov is the U.S. government's official web portal to all federal, state and local government web resources and services.